Location: Gro�wechsungen
(51.4926°N, 10.6901°E)
Time: 03:34:31
(UTC+00:00)

NOSS 3-4 (C) - Pass Details

Date: 18 September 2020
Orbit: 886 x 1326 km, 63.4° (Epoch: 19 October)

Event Time Altitude Azimuth Distance (km) Brightness Sun altitude
Exits shadow 22:41:39 41° 325° (NW) 1,366 4.5 -36.7°
Maximum altitude 22:42:01 42° 334° (NNW) 1,362 4.5 -36.7°
Drops below altitude 10° 22:48:18 10° 44° (NE) 2,857 6.3 -36.9°
Sets 22:51:15 0° 52° (NE) 3,883 7.0 -36.9°
